Rbgn^[z[y[W
メイン
   新天体発見情報
     Comet P/2017 B4 (PANSTARRS)
投稿するにはまず登録を

スレッド表示 | 新しいものから 前のトピック | 次のトピック | 下へ
投稿者 スレッド
佐藤裕久
投稿日時: 2017-2-13 12:58
モデレータ
登録日: 2005-6-12
居住地: 日本
投稿: 1786
オンライン
Comet P/2017 B4 (PANSTARRS)

Eva Lilly, Richard WainscoatとRob Weryk (ハワイ大学天文学研究所)の通報によると、1月28日、
Haleakalaにある1.8-m Ritchey-Chretien Pan-STARRS1望遠鏡で得たCCD画像から彗星を発見した。
この天体のFWHMは、隣接する恒星より大きく、非対称で、西に向かって短い尾が見える。
M. Micheliの報告によると、 R. J. WainscoatとD. Woodworthが、1月29.36日UT、 3.6-m Canada-
France-Hawaii Telescope (g, rとi フィルター)で得た、3枚の60秒フォローアップ露出で得た
画像では、この天体は明確に彗星状で、コマのFWHMは1".0 (シーイング0".8)で、p.a.270°に約10" 
の尾が見られる。
小惑星センターのPCCP webpageに公表後、佐藤英貴氏(東京都文京区, iTelescope天文台,1月30.28日
UT, 0.51-m f/6.8 アストログラフ+輝度フィルター, Mayhill近郊, ニューメキシコ州、遠隔操作:
適度に集光した8"のコマがあり、尾はない。4".9の円形範囲で測定したこの彗星のw-バンド光度は
20.2等であった)が観測した。

発見位置は次のとおり、

     2017 UT             R.A. (2000) Decl.       Mag.
     Jan. 28.38604    9 48 15.12   +22 20 21.3   21.2
          28.39835    9 48 14.72   +22 20 29.5   21.2
          28.41052    9 48 14.33   +22 20 38.1   21.3

暫定楕円軌道要素と位置推算表は次のとおり、

Orbital elements:
    P/2017 B4 (PANSTARRS)
T 2017 Jan. 12.49552 TT                                 MPCW
q   2.7435961            (2000.0)            P               Q
n   0.10975748     Peri.   13.09738     -0.68179901     -0.67494354
a   4.3202940      Node   120.73820     +0.63810731     -0.73730684
e   0.3649515      Incl.   19.16276     +0.35772778     +0.02880696
P   8.98
>From 44 observations 2017 Jan. 28-Feb. 3.

Ephemeris:
    P/2017 B4 (PANSTARRS)
Date    TT    R. A. (2000) Decl.     Delta      r     Elong.  Phase   m1
2017 01 05    09 55 18.1 +18 12 33   1.9200  2.7440   139.6    13.4  20.3
...
2017 01 20    09 52 01.9 +20 46 06   1.8171  2.7440   155.7     8.5  20.2
...
2017 01 28    09 48 26.8 +22 15 58   1.7856  2.7453   163.9     5.7  20.1
...
2017 02 03    09 45 09.1 +23 23 35   1.7737  2.7469   168.6     4.1  20.1
2017 02 04    09 44 34.0 +23 34 42   1.7728  2.7472   169.2     3.9  20.1
2017 02 05    09 43 58.4 +23 45 45   1.7721  2.7476   169.6     3.7  20.1
...
2017 02 11    09 40 18.2 +24 50 08   1.7740  2.7498   169.3     3.8  20.1
...
2017 02 19    09 35 22.6 +26 08 37   1.7925  2.7536   163.2     6.0  20.2
...
2017 03 06    09 27 37.6 +28 02 50   1.8732  2.7632   147.7    11.1  20.3

(CBET 4355、MPEC 2017-C46)

スレッド表示 | 新しいものから 前のトピック | 次のトピック | トップ

投稿するにはまず登録を
 
© 1999-2013 Tsutomu Seki.